Voltar ao catálogo

ATLAS 5 CENTAUR DEB

AtivoHEO
NORAD 44686·DEBRIS·🇺🇸 United States

Lançado Oct 17, 2018 de Cape Canaveral Space Force Station

Loading…

Próximas Passagens (próximas 24 horas)

TLE

EnvelhecendoSource: Space-Track

Época: Sep 1, 2026, 21:11 UTC

1 44686U 18079AY  26244.88302073 -.00000121  00000-0  00000+0 0  9996
2 44686  12.7781  67.9238 4630175 249.3876  56.1617  1.69097359 44874

Acompanhe ATLAS 5 CENTAUR DEB em tempo real com AllMySat

Download on the App Store